FENGYUN 1C DEB

Satellite information

Favourite Embed

Satellite Type and Status

DEBRISIN ORBIT

Key statistics

Satellite FENGYUN 1C DEB at a glance.

Uptime

9609

Days in orbit

Revolutions

≈ 14.3

Per day

Orbit

SSO

Sun Synchronous Orbit

Inclination

98.7

Latest

Satellite identification and parameters

Extended collection of information and parameters for FENGYUN 1C DEB.

Object identification

Identified? True

Debris? True

Object name: FENGYUN 1C DEB

International designator: 1999-025BSX

Object number (NORAD): 31411

Object ID (CCSDS): 31411

Country: PEOPLES REPUBLIC OF CHINA (PRC)

Current information (Y/N): Y

RCS size: SMALL

Orbital parameters

Period: 100.866 minutes

Inclination: 98.6838 deg

SMA: 7177.761 km

Apoapsis: 872.753 km

Periapsis: 726.499 km

RAAN: 300.9507 deg

Eccentricy: 0.01018799

Argument of periapsis: 209.3423 deg

Mean anomaly: 331.1263 deg

Mean motion: 14.27641817 rev/day

Mean motion (dot): 0.00000827 rev/day2

B* drag term: 0.00033481348 1/REarth

Two-line elements (TLE)

Creation date: Aug. 27, 2025, 2:14 a.m.

Reference frame: TEME

Reference center: EARTH

Epoch: Aug. 26, 2025, 10:29 p.m. UTC

TLE line 0: 0 FENGYUN 1C DEB

TLE line 1: 1 31411U 99025BSX 25238.93737681 .00000827 00000-0 33481-3 0 9998

TLE line 2: 2 31411 98.6838 300.9507 0101880 209.3423 331.1263 14.27641817929414

Live tracking on map

Real-time ground track for satellite FENGYUN 1C DEB.

In-orbit conjunctions

A list of the most updated potential collisions computed for object FENGYUN 1C DEB.

Target Orbit TCA Probability of collision Miss distance Type
PSLV R/B SSO 2025-05-04 22:56:51 0.000277567 467.0 (m) ROCKET BODY
CZ-6A DEB LEO 2024-10-16 05:36:04 0.0002154719 678.0 (m) DEBRIS
METEOR 1-19 LEO 2024-10-08 14:30:16 0.0002441664 425.0 (m) PAYLOAD

Associated space launch

Chinese polar orbiting meteorological satellite

FENGYUN 1C DEB was lifted into orbit during the mission ‘Long March 4B | Feng Yun 1C’, on board a Long March 4B space rocket.

The launch took place on May 10, 1999, 1:33 a.m. from Launch Complex 7.

For more information about the launch, click the button.

Launch to space Long March 4B | Feng Yun 1C
Long March 4B | Feng Yun 1C

Agency: N/A

Status: Launch Successful

Launch date: May 10, 1999, 1:33 a.m. UTC

Rocket: Long March 4B

Launch pad: Launch Complex 7

Location: Taiyuan Satellite Launch Center, People's Republic of China

...

Latest news about this satellite

There are no fresh news available about this satellite. Check back as we update our databases every day.


Newsletter sign-up

Weekly statistics, charts and insights to help you stay on top of the space industry.